Year,Month,Day,Hour,Minute,Value (Times are PST for temperature in C)
2006,10,11,00,00,7.50
2006,10,11,00,01,7.50
2006,10,11,00,02,7.50
2006,10,11,00,03,7.50
2006,10,11,00,04,7.50
2006,10,11,00,05,7.50
2006,10,11,00,06,7.40
2006,10,11,00,07,7.40
2006,10,11,00,08,7.40
2006,10,11,00,09,7.30
2006,10,11,00,10,7.30
2006,10,11,00,11,7.30
2006,10,11,00,12,7.40
2006,10,11,00,13,7.40
2006,10,11,00,14,7.50
2006,10,11,00,15,7.50
2006,10,11,00,16,7.50
2006,10,11,00,17,7.60
2006,10,11,00,18,7.60
2006,10,11,00,19,7.60
2006,10,11,00,20,7.60
2006,10,11,00,21,7.60
2006,10,11,00,22,7.60
2006,10,11,00,23,7.60
2006,10,11,00,24,7.50
2006,10,11,00,25,7.50
2006,10,11,00,26,7.40
2006,10,11,00,27,7.40
2006,10,11,00,28,7.40
2006,10,11,00,29,7.40
2006,10,11,00,30,7.40
2006,10,11,00,31,7.40
2006,10,11,00,32,7.40
2006,10,11,00,33,7.40
2006,10,11,00,34,7.40
2006,10,11,00,35,7.40
2006,10,11,00,36,7.40
2006,10,11,00,37,7.40
2006,10,11,00,38,7.40
2006,10,11,00,39,7.40
2006,10,11,00,40,7.40
2006,10,11,00,41,7.40
2006,10,11,00,42,7.40
2006,10,11,00,43,7.30
2006,10,11,00,44,7.40
2006,10,11,00,45,7.40
2006,10,11,00,46,7.40
2006,10,11,00,47,7.40
2006,10,11,00,48,7.40
2006,10,11,00,49,7.40
2006,10,11,00,50,7.40
2006,10,11,00,51,7.40
2006,10,11,00,52,7.30
2006,10,11,00,53,7.30
2006,10,11,00,54,7.30
2006,10,11,00,55,7.30
2006,10,11,00,56,7.40
2006,10,11,00,57,7.40
2006,10,11,00,58,7.40
2006,10,11,00,59,7.40
2006,10,11,01,00,7.40
2006,10,11,01,01,7.40
2006,10,11,01,02,7.40
2006,10,11,01,03,7.40
2006,10,11,01,04,7.40
2006,10,11,01,05,7.40
2006,10,11,01,06,7.40
2006,10,11,01,07,7.40
2006,10,11,01,08,7.30
2006,10,11,01,09,7.30
2006,10,11,01,10,7.30
2006,10,11,01,11,7.30
2006,10,11,01,12,7.30
2006,10,11,01,13,7.30
2006,10,11,01,14,7.30
2006,10,11,01,15,7.30
2006,10,11,01,16,7.30
2006,10,11,01,17,7.30
2006,10,11,01,18,7.30
2006,10,11,01,19,7.30
2006,10,11,01,20,7.30
2006,10,11,01,21,7.30
2006,10,11,01,22,7.30
2006,10,11,01,23,7.30
2006,10,11,01,24,7.30
2006,10,11,01,25,7.30
2006,10,11,01,26,7.30
2006,10,11,01,27,7.30
2006,10,11,01,28,7.20
2006,10,11,01,29,7.30
2006,10,11,01,30,7.30
2006,10,11,01,31,7.30
2006,10,11,01,32,7.30
2006,10,11,01,33,7.30
2006,10,11,01,34,7.30
2006,10,11,01,35,7.20
2006,10,11,01,36,7.20
2006,10,11,01,37,7.10
2006,10,11,01,38,7.20
2006,10,11,01,39,7.20
2006,10,11,01,40,7.20
2006,10,11,01,41,7.20
2006,10,11,01,42,7.20
2006,10,11,01,43,7.20
2006,10,11,01,44,7.20
2006,10,11,01,45,7.20
2006,10,11,01,46,7.10
2006,10,11,01,47,7.10
2006,10,11,01,48,7.10
2006,10,11,01,49,7.00
2006,10,11,01,50,7.00
2006,10,11,01,51,7.00
2006,10,11,01,52,7.00
2006,10,11,01,53,7.00
2006,10,11,01,54,7.00
2006,10,11,01,55,7.00
2006,10,11,01,56,7.00
2006,10,11,01,57,6.90
2006,10,11,01,58,6.90
2006,10,11,01,59,6.90
2006,10,11,02,00,6.90
2006,10,11,02,01,6.90
2006,10,11,02,02,6.90
2006,10,11,02,03,6.90
2006,10,11,02,04,6.80
2006,10,11,02,05,6.80
2006,10,11,02,06,6.80
2006,10,11,02,07,6.80
2006,10,11,02,08,6.80
2006,10,11,02,09,6.80
2006,10,11,02,10,6.80
2006,10,11,02,11,6.80
2006,10,11,02,12,6.80
2006,10,11,02,13,6.80
2006,10,11,02,14,6.70
2006,10,11,02,15,6.70
2006,10,11,02,16,6.80
2006,10,11,02,17,6.80
2006,10,11,02,18,6.80
2006,10,11,02,19,6.80
2006,10,11,02,20,6.80
2006,10,11,02,21,6.80
2006,10,11,02,22,6.80
2006,10,11,02,23,6.80
2006,10,11,02,24,6.80
2006,10,11,02,25,6.80
2006,10,11,02,26,6.80
2006,10,11,02,27,6.80
2006,10,11,02,28,6.80
2006,10,11,02,29,6.80
2006,10,11,02,30,6.80
2006,10,11,02,31,6.80
2006,10,11,02,32,6.70
2006,10,11,02,33,6.70
2006,10,11,02,34,6.80
2006,10,11,02,35,6.80
2006,10,11,02,36,6.80
2006,10,11,02,37,6.80
2006,10,11,02,38,6.80
2006,10,11,02,39,6.80
2006,10,11,02,40,6.80
2006,10,11,02,41,6.80
2006,10,11,02,42,6.70
2006,10,11,02,43,6.70
2006,10,11,02,44,6.70
2006,10,11,02,45,6.70
2006,10,11,02,46,6.80
2006,10,11,02,47,6.80
2006,10,11,02,48,6.80
2006,10,11,02,49,6.80
2006,10,11,02,50,6.80
2006,10,11,02,51,6.80
2006,10,11,02,52,6.80
2006,10,11,02,53,6.80
2006,10,11,02,54,6.80
2006,10,11,02,55,6.80
2006,10,11,02,56,6.80
2006,10,11,02,57,6.80
2006,10,11,02,58,6.80
2006,10,11,02,59,6.80
2006,10,11,03,00,6.80
2006,10,11,03,01,6.80
2006,10,11,03,02,6.70
2006,10,11,03,03,6.70
2006,10,11,03,04,6.70
2006,10,11,03,05,6.80
2006,10,11,03,06,6.80
2006,10,11,03,07,6.80
2006,10,11,03,08,6.80
2006,10,11,03,09,6.80
2006,10,11,03,10,6.80
2006,10,11,03,11,6.80
2006,10,11,03,12,6.80
2006,10,11,03,13,6.80
2006,10,11,03,14,6.80
2006,10,11,03,15,6.70
2006,10,11,03,16,6.70
2006,10,11,03,17,6.70
2006,10,11,03,18,6.70
2006,10,11,03,19,6.70
2006,10,11,03,20,6.70
2006,10,11,03,21,6.70
2006,10,11,03,22,6.70
2006,10,11,03,23,6.70
2006,10,11,03,24,6.70
2006,10,11,03,25,6.70
2006,10,11,03,26,6.70
2006,10,11,03,27,6.80
2006,10,11,03,28,6.80
2006,10,11,03,29,6.80
2006,10,11,03,30,6.80
2006,10,11,03,31,6.80
2006,10,11,03,32,6.70
2006,10,11,03,33,6.70
2006,10,11,03,34,6.70
2006,10,11,03,35,6.70
2006,10,11,03,36,6.80
2006,10,11,03,37,6.80
2006,10,11,03,38,6.80
2006,10,11,03,39,6.80
2006,10,11,03,40,6.80
2006,10,11,03,41,6.70
2006,10,11,03,42,6.70
2006,10,11,03,43,6.80
2006,10,11,03,44,6.80
2006,10,11,03,45,6.80
2006,10,11,03,46,6.70
2006,10,11,03,47,6.70
2006,10,11,03,48,6.70
2006,10,11,03,49,6.70
2006,10,11,03,50,6.70
2006,10,11,03,51,6.80
2006,10,11,03,52,6.80
2006,10,11,03,53,6.80
2006,10,11,03,54,6.80
2006,10,11,03,55,6.80
2006,10,11,03,56,6.80
2006,10,11,03,57,6.80
2006,10,11,03,58,6.80
2006,10,11,03,59,6.80
2006,10,11,04,00,6.80
2006,10,11,04,01,6.80
2006,10,11,04,02,6.80
2006,10,11,04,03,6.80
2006,10,11,04,04,6.80
2006,10,11,04,05,6.80
2006,10,11,04,06,6.80
2006,10,11,04,07,6.80
2006,10,11,04,08,6.80
2006,10,11,04,09,6.80
2006,10,11,04,10,6.80
2006,10,11,04,11,6.80
2006,10,11,04,12,6.80
2006,10,11,04,13,6.90
2006,10,11,04,14,6.90
2006,10,11,04,15,6.90
2006,10,11,04,16,6.90
2006,10,11,04,17,6.90
2006,10,11,04,18,6.90
2006,10,11,04,19,6.90
2006,10,11,04,20,7.00
2006,10,11,04,21,7.00
2006,10,11,04,22,7.00
2006,10,11,04,23,6.90
2006,10,11,04,24,6.80
2006,10,11,04,25,6.80
2006,10,11,04,26,6.80
2006,10,11,04,27,6.80
2006,10,11,04,28,6.80
2006,10,11,04,29,6.80
2006,10,11,04,30,6.80
2006,10,11,04,31,6.80
2006,10,11,04,32,6.80
2006,10,11,04,33,6.80
2006,10,11,04,34,6.80
2006,10,11,04,35,6.80
2006,10,11,04,36,6.80
2006,10,11,04,37,6.80
2006,10,11,04,38,6.80
2006,10,11,04,39,6.70
2006,10,11,04,40,6.70
2006,10,11,04,41,6.60
2006,10,11,04,42,6.60
2006,10,11,04,43,6.70
2006,10,11,04,44,6.70
2006,10,11,04,45,6.70
2006,10,11,04,46,6.80
2006,10,11,04,47,6.80
2006,10,11,04,48,6.80
2006,10,11,04,49,6.80
2006,10,11,04,50,6.80
2006,10,11,04,51,6.80
2006,10,11,04,52,6.80
2006,10,11,04,53,6.80
2006,10,11,04,54,6.80
2006,10,11,04,55,6.80
2006,10,11,04,56,6.80
2006,10,11,04,57,6.80
2006,10,11,04,58,6.70
2006,10,11,04,59,6.70
2006,10,11,05,00,6.60
2006,10,11,05,01,6.60
2006,10,11,05,02,6.70
2006,10,11,05,03,6.70
2006,10,11,05,04,6.80
2006,10,11,05,05,6.80
2006,10,11,05,06,6.80
2006,10,11,05,07,6.80
2006,10,11,05,08,6.70
2006,10,11,05,09,6.70
2006,10,11,05,10,6.70
2006,10,11,05,11,6.60
2006,10,11,05,12,6.60
2006,10,11,05,13,6.60
2006,10,11,05,14,6.60
2006,10,11,05,15,6.60
2006,10,11,05,16,6.60
2006,10,11,05,17,6.60
2006,10,11,05,18,6.60
2006,10,11,05,19,6.60
2006,10,11,05,20,6.60
2006,10,11,05,21,6.60
2006,10,11,05,22,6.60
2006,10,11,05,23,6.50
2006,10,11,05,24,6.40
2006,10,11,05,25,6.40
2006,10,11,05,26,6.40
2006,10,11,05,27,6.40
2006,10,11,05,28,6.40
2006,10,11,05,29,6.40
2006,10,11,05,30,6.40
2006,10,11,05,31,6.40
2006,10,11,05,32,6.40
2006,10,11,05,33,6.40
2006,10,11,05,34,6.40
2006,10,11,05,35,6.40
2006,10,11,05,36,6.40
2006,10,11,05,37,6.40
2006,10,11,05,38,6.40
2006,10,11,05,39,6.40
2006,10,11,05,40,6.40
2006,10,11,05,41,6.40
2006,10,11,05,42,6.40
2006,10,11,05,43,6.40
2006,10,11,05,44,6.40
2006,10,11,05,45,6.40
2006,10,11,05,46,6.40
2006,10,11,05,47,6.40
2006,10,11,05,48,6.40
2006,10,11,05,49,6.40
2006,10,11,05,50,6.40
2006,10,11,05,51,6.40
2006,10,11,05,52,6.40
2006,10,11,05,53,6.40
2006,10,11,05,54,6.40
2006,10,11,05,55,6.40
2006,10,11,05,56,6.40
2006,10,11,05,57,6.40
2006,10,11,05,58,6.30
2006,10,11,05,59,6.30
2006,10,11,06,00,6.30
2006,10,11,06,01,6.30
2006,10,11,06,02,6.30
2006,10,11,06,03,6.30
2006,10,11,06,04,6.30
2006,10,11,06,05,6.30
2006,10,11,06,06,6.30
2006,10,11,06,07,6.30
2006,10,11,06,08,6.30
2006,10,11,06,09,6.40
2006,10,11,06,10,6.40
2006,10,11,06,11,6.40
2006,10,11,06,12,6.40
2006,10,11,06,13,6.40
2006,10,11,06,14,6.40
2006,10,11,06,15,6.40
2006,10,11,06,16,6.40
2006,10,11,06,17,6.40
2006,10,11,06,18,6.30
2006,10,11,06,19,6.30
2006,10,11,06,20,6.30
2006,10,11,06,21,6.20
2006,10,11,06,22,6.20
2006,10,11,06,23,6.20
2006,10,11,06,24,6.20
2006,10,11,06,25,6.20
2006,10,11,06,26,6.30
2006,10,11,06,27,6.30
2006,10,11,06,28,6.30
2006,10,11,06,29,6.30
2006,10,11,06,30,6.30
2006,10,11,06,31,6.30
2006,10,11,06,32,6.30
2006,10,11,06,33,6.30
2006,10,11,06,34,6.30
2006,10,11,06,35,6.20
2006,10,11,06,36,6.20
2006,10,11,06,37,6.20
2006,10,11,06,38,6.30
2006,10,11,06,39,6.30
2006,10,11,06,40,6.40
2006,10,11,06,41,6.40
2006,10,11,06,42,6.40
2006,10,11,06,43,6.40
2006,10,11,06,44,6.40
2006,10,11,06,45,6.40
2006,10,11,06,46,6.40
2006,10,11,06,47,6.30
2006,10,11,06,48,6.30
2006,10,11,06,49,6.30
2006,10,11,06,50,6.30
2006,10,11,06,51,6.40
2006,10,11,06,52,6.40
2006,10,11,06,53,6.50
2006,10,11,06,54,6.60
2006,10,11,06,55,6.60
2006,10,11,06,56,6.50
2006,10,11,06,57,6.40
2006,10,11,06,58,6.40
2006,10,11,06,59,6.40
2006,10,11,07,00,6.40
2006,10,11,07,01,6.40
2006,10,11,07,02,6.40
2006,10,11,07,03,6.40
2006,10,11,07,04,6.40
2006,10,11,07,05,6.40
2006,10,11,07,06,6.40
2006,10,11,07,07,6.40
2006,10,11,07,08,6.40
2006,10,11,07,09,6.40
2006,10,11,07,10,6.50
2006,10,11,07,11,6.60
2006,10,11,07,12,6.60
2006,10,11,07,13,6.60
2006,10,11,07,14,6.60
2006,10,11,07,15,6.60
2006,10,11,07,16,6.60
2006,10,11,07,17,6.60
2006,10,11,07,18,6.60
2006,10,11,07,19,6.60
2006,10,11,07,20,6.70
2006,10,11,07,21,6.70
2006,10,11,07,22,6.70
2006,10,11,07,23,6.80
2006,10,11,07,24,6.80
2006,10,11,07,25,6.80
2006,10,11,07,26,6.80
2006,10,11,07,27,6.80
2006,10,11,07,28,6.80
2006,10,11,07,29,6.80
2006,10,11,07,30,6.80
2006,10,11,07,31,6.70
2006,10,11,07,32,6.70
2006,10,11,07,33,6.70
2006,10,11,07,34,6.70
2006,10,11,07,35,6.70
2006,10,11,07,36,6.60
2006,10,11,07,37,6.60
2006,10,11,07,38,6.60
2006,10,11,07,39,6.60
2006,10,11,07,40,6.60
2006,10,11,07,41,6.60
2006,10,11,07,42,6.60
2006,10,11,07,43,6.60
2006,10,11,07,44,6.60
2006,10,11,07,45,6.70
2006,10,11,07,46,6.70
2006,10,11,07,47,6.70
2006,10,11,07,48,6.60
2006,10,11,07,49,6.70
2006,10,11,07,50,6.70
2006,10,11,07,51,6.70
2006,10,11,07,52,6.70
2006,10,11,07,53,6.70
2006,10,11,07,54,6.70
2006,10,11,07,55,6.70
2006,10,11,07,56,6.70
2006,10,11,07,57,6.70
2006,10,11,07,58,6.70
2006,10,11,07,59,6.70
2006,10,11,08,00,6.70
2006,10,11,08,01,6.70
2006,10,11,08,02,6.80
2006,10,11,08,03,6.70
2006,10,11,08,04,6.70
2006,10,11,08,05,6.70
2006,10,11,08,06,6.70
2006,10,11,08,07,6.80
2006,10,11,08,08,6.80
2006,10,11,08,09,6.80
2006,10,11,08,10,6.80
2006,10,11,08,11,6.80
2006,10,11,08,12,6.80
2006,10,11,08,13,6.90
2006,10,11,08,14,6.90
2006,10,11,08,15,6.90
2006,10,11,08,16,6.90
2006,10,11,08,17,6.90
2006,10,11,08,18,6.90
2006,10,11,08,19,6.90
2006,10,11,08,20,7.00
2006,10,11,08,21,7.00
2006,10,11,08,22,7.00
2006,10,11,08,23,7.00
2006,10,11,08,24,7.10
2006,10,11,08,25,7.10
2006,10,11,08,26,7.20
2006,10,11,08,27,7.20
2006,10,11,08,28,7.30
2006,10,11,08,29,7.30
2006,10,11,08,30,7.30
2006,10,11,08,31,7.40
2006,10,11,08,32,7.40
2006,10,11,08,33,7.40
2006,10,11,08,34,7.40
2006,10,11,08,35,7.40
2006,10,11,08,36,7.40
2006,10,11,08,37,7.40
2006,10,11,08,38,7.50
2006,10,11,08,39,7.50
2006,10,11,08,40,7.50
2006,10,11,08,41,7.50
2006,10,11,08,42,7.60
2006,10,11,08,43,7.60
2006,10,11,08,44,7.80
2006,10,11,08,45,7.80
2006,10,11,08,46,7.90
2006,10,11,08,47,7.90
2006,10,11,08,48,8.00
2006,10,11,08,49,8.00
2006,10,11,08,50,8.00
2006,10,11,08,51,8.00
2006,10,11,08,52,8.10
2006,10,11,08,53,8.10
2006,10,11,08,54,8.10
2006,10,11,08,55,8.20
2006,10,11,08,56,8.20
2006,10,11,08,57,8.20
2006,10,11,08,58,8.30
2006,10,11,08,59,8.30
2006,10,11,09,00,8.40
2006,10,11,09,01,8.40
2006,10,11,09,02,8.50
2006,10,11,09,03,8.60
2006,10,11,09,04,8.70
2006,10,11,09,05,8.70
2006,10,11,09,06,8.70
2006,10,11,09,07,8.80
2006,10,11,09,08,8.80
2006,10,11,09,09,8.90
2006,10,11,09,10,9.00
2006,10,11,09,11,9.00
2006,10,11,09,12,9.10
2006,10,11,09,13,9.20
2006,10,11,09,14,9.30
2006,10,11,09,15,9.40
2006,10,11,09,16,9.40
2006,10,11,09,17,9.50
2006,10,11,09,18,9.60
2006,10,11,09,19,9.60
2006,10,11,09,20,9.70
2006,10,11,09,21,9.70
2006,10,11,09,22,9.70
2006,10,11,09,23,9.70
2006,10,11,09,24,9.80
2006,10,11,09,25,9.80
2006,10,11,09,26,9.90
2006,10,11,09,27,9.90
2006,10,11,09,28,10.00
2006,10,11,09,29,10.10
2006,10,11,09,30,10.20
2006,10,11,09,31,10.20
2006,10,11,09,32,10.30
2006,10,11,09,33,10.30
2006,10,11,09,34,10.40
2006,10,11,09,35,10.30
2006,10,11,09,36,10.30
2006,10,11,09,37,10.40
2006,10,11,09,38,10.40
2006,10,11,09,39,10.50
2006,10,11,09,40,10.60
2006,10,11,09,41,10.60
2006,10,11,09,42,10.60
2006,10,11,09,43,10.70
2006,10,11,09,44,10.70
2006,10,11,09,45,10.80
2006,10,11,09,46,10.90
2006,10,11,09,47,10.90
2006,10,11,09,48,11.00
2006,10,11,09,49,11.10
2006,10,11,09,50,11.10
2006,10,11,09,51,11.20
2006,10,11,09,52,11.30
2006,10,11,09,53,11.40
2006,10,11,09,54,11.40
2006,10,11,09,55,11.50
2006,10,11,09,56,11.60
2006,10,11,09,57,11.70
2006,10,11,09,58,11.80
2006,10,11,09,59,11.80
2006,10,11,10,00,11.90
2006,10,11,10,01,12.00
2006,10,11,10,02,12.00
2006,10,11,10,03,12.10
2006,10,11,10,04,12.10
2006,10,11,10,05,12.20
2006,10,11,10,06,12.30
2006,10,11,10,07,12.30
2006,10,11,10,08,12.40
2006,10,11,10,09,12.40
2006,10,11,10,10,12.50
2006,10,11,10,11,12.60
2006,10,11,10,12,12.60
2006,10,11,10,13,12.60
2006,10,11,10,14,12.70
2006,10,11,10,15,12.70
2006,10,11,10,16,12.70
2006,10,11,10,17,12.80
2006,10,11,10,18,12.80
2006,10,11,10,19,12.80
2006,10,11,10,20,12.80
2006,10,11,10,21,12.80
2006,10,11,10,22,12.90
2006,10,11,10,23,12.90
2006,10,11,10,24,12.90
2006,10,11,10,25,13.00
2006,10,11,10,26,13.00
2006,10,11,10,27,13.00
2006,10,11,10,28,13.00
2006,10,11,10,29,13.00
2006,10,11,10,30,13.10
2006,10,11,10,31,13.10
2006,10,11,10,32,13.10
2006,10,11,10,33,13.20
2006,10,11,10,34,13.20
2006,10,11,10,35,13.30
2006,10,11,10,36,13.30
2006,10,11,10,37,13.30
2006,10,11,10,38,13.30
2006,10,11,10,39,13.30
2006,10,11,10,40,13.30
2006,10,11,10,41,13.30
2006,10,11,10,42,13.40
2006,10,11,10,43,13.40
2006,10,11,10,44,13.50
2006,10,11,10,45,13.50
2006,10,11,10,46,13.50
2006,10,11,10,47,13.50
2006,10,11,10,48,13.50
2006,10,11,10,49,13.50
2006,10,11,10,50,13.50
2006,10,11,10,51,13.50
2006,10,11,10,52,13.60
2006,10,11,10,53,13.60
2006,10,11,10,54,13.60
2006,10,11,10,55,13.70
2006,10,11,10,56,13.70
2006,10,11,10,57,13.70
2006,10,11,10,58,13.70
2006,10,11,10,59,13.70
2006,10,11,11,00,13.70
2006,10,11,11,01,13.80
2006,10,11,11,02,13.80
2006,10,11,11,03,13.90
2006,10,11,11,04,13.90
2006,10,11,11,05,14.00
2006,10,11,11,06,14.10
2006,10,11,11,07,14.10
2006,10,11,11,08,14.20
2006,10,11,11,09,14.40
2006,10,11,11,10,14.60
2006,10,11,11,11,14.60
2006,10,11,11,12,14.70
2006,10,11,11,13,14.70
2006,10,11,11,14,14.80
2006,10,11,11,15,14.70
2006,10,11,11,16,14.70
2006,10,11,11,17,14.70
2006,10,11,11,18,14.60
2006,10,11,11,19,14.60
2006,10,11,11,20,14.70
2006,10,11,11,21,14.80
2006,10,11,11,22,14.80
2006,10,11,11,23,14.80
2006,10,11,11,24,14.80
2006,10,11,11,25,14.90
2006,10,11,11,26,15.00
2006,10,11,11,27,15.00
2006,10,11,11,28,15.00
2006,10,11,11,29,15.10
2006,10,11,11,30,15.10
2006,10,11,11,31,15.20
2006,10,11,11,32,15.20
2006,10,11,11,33,15.30
2006,10,11,11,34,15.30
2006,10,11,11,35,15.30
2006,10,11,11,36,15.40
2006,10,11,11,37,15.50
2006,10,11,11,38,15.50
2006,10,11,11,39,15.60
2006,10,11,11,40,15.60
2006,10,11,11,41,15.70
2006,10,11,11,42,15.70
2006,10,11,11,43,15.70
2006,10,11,11,44,15.70
2006,10,11,11,45,15.70
2006,10,11,11,46,15.80
2006,10,11,11,47,15.80
2006,10,11,11,48,15.80
2006,10,11,11,49,16.00
2006,10,11,11,50,16.10
2006,10,11,11,51,16.10
2006,10,11,11,52,16.20
2006,10,11,11,53,16.20
2006,10,11,11,54,16.20
2006,10,11,11,55,16.20
2006,10,11,11,56,16.10
2006,10,11,11,57,16.10
2006,10,11,11,58,16.00
2006,10,11,11,59,15.90
2006,10,11,12,00,15.80
2006,10,11,12,01,15.70
2006,10,11,12,02,15.60
2006,10,11,12,03,15.60
2006,10,11,12,04,15.50
2006,10,11,12,05,15.40
2006,10,11,12,06,15.40
2006,10,11,12,07,15.30
2006,10,11,12,08,15.40
2006,10,11,12,09,15.40
2006,10,11,12,10,15.40
2006,10,11,12,11,15.50
2006,10,11,12,12,15.50
2006,10,11,12,13,15.50
2006,10,11,12,14,15.60
2006,10,11,12,15,15.60
2006,10,11,12,16,15.70
2006,10,11,12,17,15.70
2006,10,11,12,18,15.60
2006,10,11,12,19,15.60
2006,10,11,12,20,15.70
2006,10,11,12,21,15.70
2006,10,11,12,22,15.70
2006,10,11,12,23,15.70
2006,10,11,12,24,15.60
2006,10,11,12,25,15.70
2006,10,11,12,26,15.70
2006,10,11,12,27,15.70
2006,10,11,12,28,15.60
2006,10,11,12,29,15.70
2006,10,11,12,30,15.70
2006,10,11,12,31,15.80
2006,10,11,12,32,15.80
2006,10,11,12,33,15.80
2006,10,11,12,34,15.80
2006,10,11,12,35,15.80
2006,10,11,12,36,15.80
2006,10,11,12,37,15.80
2006,10,11,12,38,15.90
2006,10,11,12,39,16.10
2006,10,11,12,40,16.10
2006,10,11,12,41,16.20
2006,10,11,12,42,16.30
2006,10,11,12,43,16.30
2006,10,11,12,44,16.40
2006,10,11,12,45,16.50
2006,10,11,12,46,16.60
2006,10,11,12,47,16.70
2006,10,11,12,48,16.70
2006,10,11,12,49,16.70
2006,10,11,12,50,16.70
2006,10,11,12,51,16.70
2006,10,11,12,52,16.70
2006,10,11,12,53,16.70
2006,10,11,12,54,16.70
2006,10,11,12,55,16.70
2006,10,11,12,56,16.70
2006,10,11,12,57,16.70
2006,10,11,12,58,16.70
2006,10,11,12,59,16.70
2006,10,11,13,00,16.80
2006,10,11,13,01,16.80
2006,10,11,13,02,16.80
2006,10,11,13,03,16.80
2006,10,11,13,04,16.80
2006,10,11,13,05,16.90
2006,10,11,13,06,16.90
2006,10,11,13,07,17.00
2006,10,11,13,08,17.00
2006,10,11,13,09,16.90
2006,10,11,13,10,16.90
2006,10,11,13,11,16.90
2006,10,11,13,12,16.80
2006,10,11,13,13,16.80
2006,10,11,13,14,16.80
2006,10,11,13,15,16.80
2006,10,11,13,16,16.80
2006,10,11,13,17,16.70
2006,10,11,13,18,16.70
2006,10,11,13,19,16.80
2006,10,11,13,20,16.80
2006,10,11,13,21,16.80
2006,10,11,13,22,16.90
2006,10,11,13,23,16.90
2006,10,11,13,24,16.90
2006,10,11,13,25,17.00
2006,10,11,13,26,17.00
2006,10,11,13,27,17.10
2006,10,11,13,28,17.20
2006,10,11,13,29,17.20
2006,10,11,13,30,17.20
2006,10,11,13,31,17.20
2006,10,11,13,32,17.20
2006,10,11,13,33,17.20
2006,10,11,13,34,17.20
2006,10,11,13,35,17.30
2006,10,11,13,36,17.30
2006,10,11,13,37,17.40
2006,10,11,13,38,17.40
2006,10,11,13,39,17.40
2006,10,11,13,40,17.50
2006,10,11,13,41,17.50
2006,10,11,13,42,17.50
2006,10,11,13,43,17.50
2006,10,11,13,44,17.60
2006,10,11,13,45,17.70
2006,10,11,13,46,17.70
2006,10,11,13,47,17.70
2006,10,11,13,48,17.70
2006,10,11,13,49,17.70
2006,10,11,13,50,17.60
2006,10,11,13,51,17.70
2006,10,11,13,52,17.70
2006,10,11,13,53,17.60
2006,10,11,13,54,17.60
2006,10,11,13,55,17.60
2006,10,11,13,56,17.60
2006,10,11,13,57,17.60
2006,10,11,13,58,17.60
2006,10,11,13,59,17.70
2006,10,11,14,00,17.70
2006,10,11,14,01,17.70
2006,10,11,14,02,17.70
2006,10,11,14,03,17.70
2006,10,11,14,04,17.60
2006,10,11,14,05,17.60
2006,10,11,14,06,17.60
2006,10,11,14,07,17.60
2006,10,11,14,08,17.70
2006,10,11,14,09,17.70
2006,10,11,14,10,17.80
2006,10,11,14,11,17.80
2006,10,11,14,12,17.90
2006,10,11,14,13,17.90
2006,10,11,14,14,18.00
2006,10,11,14,15,18.10
2006,10,11,14,16,18.20
2006,10,11,14,17,18.20
2006,10,11,14,18,18.20
2006,10,11,14,19,18.20
2006,10,11,14,20,18.20
2006,10,11,14,21,18.20
2006,10,11,14,22,18.20
2006,10,11,14,23,18.20
2006,10,11,14,24,18.20
2006,10,11,14,25,18.10
2006,10,11,14,26,18.10
2006,10,11,14,27,18.10
2006,10,11,14,28,18.10
2006,10,11,14,29,18.10
2006,10,11,14,30,18.10
2006,10,11,14,31,18.10
2006,10,11,14,32,18.10
2006,10,11,14,33,18.10
2006,10,11,14,34,18.00
2006,10,11,14,35,17.90
2006,10,11,14,36,17.90
2006,10,11,14,37,17.90
2006,10,11,14,38,17.90
2006,10,11,14,39,17.90
2006,10,11,14,40,18.00
2006,10,11,14,41,18.10
2006,10,11,14,42,18.10
2006,10,11,14,43,18.10
2006,10,11,14,44,18.20
2006,10,11,14,45,18.20
2006,10,11,14,46,18.20
2006,10,11,14,47,18.20
2006,10,11,14,48,18.10
2006,10,11,14,49,18.00
2006,10,11,14,50,17.90
2006,10,11,14,51,17.90
2006,10,11,14,52,17.90
2006,10,11,14,53,17.90
2006,10,11,14,54,17.90
2006,10,11,14,55,18.00
2006,10,11,14,56,18.10
2006,10,11,14,57,18.10
2006,10,11,14,58,18.10
2006,10,11,14,59,18.20
2006,10,11,15,00,18.20
2006,10,11,15,01,18.20
2006,10,11,15,02,18.20
2006,10,11,15,03,18.20
2006,10,11,15,04,18.20
2006,10,11,15,05,18.20
2006,10,11,15,06,18.10
2006,10,11,15,07,18.10
2006,10,11,15,08,18.10
2006,10,11,15,09,18.10
2006,10,11,15,10,18.10
2006,10,11,15,11,18.10
2006,10,11,15,12,18.10
2006,10,11,15,13,18.10
2006,10,11,15,14,18.00
2006,10,11,15,15,17.90
2006,10,11,15,16,17.90
2006,10,11,15,17,17.90
2006,10,11,15,18,17.90
2006,10,11,15,19,17.80
2006,10,11,15,20,17.90
2006,10,11,15,21,17.90
2006,10,11,15,22,17.90
2006,10,11,15,23,17.90
2006,10,11,15,24,17.90
2006,10,11,15,25,17.90
2006,10,11,15,26,17.90
2006,10,11,15,27,17.90
2006,10,11,15,28,17.90
2006,10,11,15,29,17.90
2006,10,11,15,30,17.90
2006,10,11,15,31,17.90
2006,10,11,15,32,18.00
2006,10,11,15,33,18.10
2006,10,11,15,34,18.10
2006,10,11,15,35,18.10
2006,10,11,15,36,18.10
2006,10,11,15,37,18.10
2006,10,11,15,38,18.10
2006,10,11,15,39,18.20
2006,10,11,15,40,18.10
2006,10,11,15,41,18.10
2006,10,11,15,42,18.10
2006,10,11,15,43,18.20
2006,10,11,15,44,18.20
2006,10,11,15,45,18.20
2006,10,11,15,46,18.20
2006,10,11,15,47,18.30
2006,10,11,15,48,18.30
2006,10,11,15,49,18.30
2006,10,11,15,50,18.30
2006,10,11,15,51,18.30
2006,10,11,15,52,18.30
2006,10,11,15,53,18.30
2006,10,11,15,54,18.30
2006,10,11,15,55,18.40
2006,10,11,15,56,18.40
2006,10,11,15,57,18.40
2006,10,11,15,58,18.40
2006,10,11,15,59,18.40
2006,10,11,16,00,18.40
2006,10,11,16,01,18.40
2006,10,11,16,02,18.50
2006,10,11,16,03,18.50
2006,10,11,16,04,18.50
2006,10,11,16,05,18.50
2006,10,11,16,06,18.40
2006,10,11,16,07,18.40
2006,10,11,16,08,18.40
2006,10,11,16,09,18.50
2006,10,11,16,10,18.50
2006,10,11,16,11,18.50
2006,10,11,16,12,18.50
2006,10,11,16,13,18.40
2006,10,11,16,14,18.40
2006,10,11,16,15,18.40
2006,10,11,16,16,18.30
2006,10,11,16,17,18.20
2006,10,11,16,18,18.20
2006,10,11,16,19,18.20
2006,10,11,16,20,18.10
2006,10,11,16,21,18.10
2006,10,11,16,22,18.00
2006,10,11,16,23,17.90
2006,10,11,16,24,18.00
2006,10,11,16,25,18.10
2006,10,11,16,26,18.10
2006,10,11,16,27,18.10
2006,10,11,16,28,18.20
2006,10,11,16,29,18.20
2006,10,11,16,30,18.20
2006,10,11,16,31,18.20
2006,10,11,16,32,18.10
2006,10,11,16,33,18.10
2006,10,11,16,34,18.00
2006,10,11,16,35,17.90
2006,10,11,16,36,17.90
2006,10,11,16,37,17.90
2006,10,11,16,38,17.90
2006,10,11,16,39,17.90
2006,10,11,16,40,17.90
2006,10,11,16,41,17.90
2006,10,11,16,42,17.80
2006,10,11,16,43,17.70
2006,10,11,16,44,17.70
2006,10,11,16,45,17.60
2006,10,11,16,46,17.60
2006,10,11,16,47,17.60
2006,10,11,16,48,17.60
2006,10,11,16,49,17.60
2006,10,11,16,50,17.60
2006,10,11,16,51,17.60
2006,10,11,16,52,17.60
2006,10,11,16,53,17.60
2006,10,11,16,54,17.60
2006,10,11,16,55,17.60
2006,10,11,16,56,17.70
2006,10,11,16,57,17.70
2006,10,11,16,58,17.70
2006,10,11,16,59,17.80
2006,10,11,17,00,17.90
2006,10,11,17,01,17.90
2006,10,11,17,02,17.90
2006,10,11,17,03,17.90
2006,10,11,17,04,18.00
2006,10,11,17,05,18.10
2006,10,11,17,06,18.10
2006,10,11,17,07,18.10
2006,10,11,17,08,17.90
2006,10,11,17,09,17.90
2006,10,11,17,10,17.90
2006,10,11,17,11,17.90
2006,10,11,17,12,17.90
2006,10,11,17,13,18.00
2006,10,11,17,14,18.10
2006,10,11,17,15,18.10
2006,10,11,17,16,18.20
2006,10,11,17,17,18.20
2006,10,11,17,18,18.20
2006,10,11,17,19,18.20
2006,10,11,17,20,18.20
2006,10,11,17,21,18.20
2006,10,11,17,22,18.20
2006,10,11,17,23,18.20
2006,10,11,17,24,18.20
2006,10,11,17,25,18.10
2006,10,11,17,26,18.10
2006,10,11,17,27,18.10
2006,10,11,17,28,18.10
2006,10,11,17,29,18.10
2006,10,11,17,30,18.10
2006,10,11,17,31,17.90
2006,10,11,17,32,17.90
2006,10,11,17,33,17.90
2006,10,11,17,34,17.80
2006,10,11,17,35,17.80
2006,10,11,17,36,17.70
2006,10,11,17,37,17.70
2006,10,11,17,38,17.70
2006,10,11,17,39,17.70
2006,10,11,17,40,17.70
2006,10,11,17,41,17.60
2006,10,11,17,42,17.60
2006,10,11,17,43,17.60
2006,10,11,17,44,17.60